SKU104 SCJO-SCEL

Flight info

Callsign SKU104
Flight time 1h 17m
Altitude 38000
Route PUKAN2D PUKAN UQ802 EROLO EROLO2D
Aircraft A20N/M-SDE2E3FGHIRWXY/LB1

Departure

Time 2026-05-05 21:53
Airport Cañal Bajo Carlos Hott Siebert Airport (SCJO)

Arrival

Time 2026-05-05 23:10
Airport Comodoro Arturo Merino Benítez International Airport (SCEL)
Time Latitude Longitude Altitude Speed Heading
2026-05-05 21:34 -40.60487 -73.06141 204 ft 0 kts 64°
2026-05-05 21:44 -40.60490 -73.06149 204 ft 2 kts 64°
2026-05-05 21:44 -40.60496 -73.06167 203 ft 2 kts 64°
2026-05-05 21:44 -40.60500 -73.06186 203 ft 2 kts 98°
2026-05-05 21:45 -40.60495 -73.06205 203 ft 2 kts 126°
2026-05-05 21:45 -40.60485 -73.06217 202 ft 0 kts 152°
2026-05-05 21:45 -40.60479 -73.06220 202 ft 1 kts 159°
2026-05-05 21:45 -40.60477 -73.06222 202 ft 0 kts 156°
2026-05-05 21:49 -40.60482 -73.06219 202 ft 4 kts 156°
2026-05-05 21:50 -40.60542 -73.06184 202 ft 10 kts 156°
2026-05-05 21:50 -40.60618 -73.06165 201 ft 12 kts 182°
2026-05-05 21:50 -40.60711 -73.06177 200 ft 13 kts 186°
2026-05-05 21:50 -40.60738 -73.06181 200 ft 0 kts 186°
2026-05-05 21:51 -40.60782 -73.06187 200 ft 16 kts 186°
2026-05-05 21:51 -40.60947 -73.06171 200 ft 30 kts 155°
2026-05-05 21:51 -40.61165 -73.06042 203 ft 35 kts 155°
2026-05-05 21:51 -40.61381 -73.05911 201 ft 32 kts 155°
2026-05-05 21:52 -40.61771 -73.05705 192 ft 21 kts 181°
2026-05-05 21:52 -40.61809 -73.05660 191 ft 4 kts 26°
2026-05-05 21:52 -40.61769 -73.05680 192 ft 12 kts 339°
2026-05-05 21:53 -40.61459 -73.05862 201 ft 85 kts 335°
2026-05-05 21:53 -40.60723 -73.06309 201 ft 145 kts 336°
2026-05-05 21:53 -40.59747 -73.06903 558 ft 159 kts 336°
2026-05-05 21:53 -40.58718 -73.07442 1165 ft 159 kts 355°
2026-05-05 21:54 -40.57668 -73.07295 1875 ft 152 kts 18°
2026-05-05 21:54 -40.56649 -73.06888 2477 ft 159 kts 17°
2026-05-05 21:54 -40.55563 -73.06454 2884 ft 172 kts 17°
2026-05-05 21:54 -40.54352 -73.06010 3307 ft 188 kts 14°
2026-05-05 21:55 -40.53007 -73.05547 3620 ft 212 kts 12°
2026-05-05 21:55 -40.51529 -73.05065 4067 ft 229 kts 11°
2026-05-05 21:55 -40.49926 -73.04558 4559 ft 244 kts 10°
2026-05-05 21:55 -40.48253 -73.04032 5342 ft 250 kts 10°
2026-05-05 21:56 -40.46598 -73.03512 6230 ft 250 kts
2026-05-05 21:56 -40.44909 -73.02982 7109 ft 251 kts
2026-05-05 21:56 -40.43215 -73.02464 7907 ft 255 kts
2026-05-05 21:56 -40.41476 -73.01935 8661 ft 259 kts
2026-05-05 21:57 -40.39703 -73.01392 9424 ft 264 kts
2026-05-05 21:57 -40.37933 -73.00853 10144 ft 268 kts
2026-05-05 21:57 -40.36085 -73.00291 10671 ft 281 kts
2026-05-05 21:57 -40.34125 -72.99699 11016 ft 298 kts
2026-05-05 21:58 -40.32029 -72.99062 11339 ft 316 kts
2026-05-05 21:58 -40.29845 -72.98393 11764 ft 329 kts
2026-05-05 21:58 -40.27594 -72.97697 12399 ft 335 kts
2026-05-05 21:58 -40.25323 -72.96993 13052 ft 340 kts
2026-05-05 21:59 -40.22991 -72.96223 13681 ft 345 kts
2026-05-05 21:59 -40.20687 -72.95444 14299 ft 350 kts
2026-05-05 21:59 -40.18318 -72.94643 14947 ft 353 kts
2026-05-05 21:59 -40.15926 -72.93832 15603 ft 357 kts
2026-05-05 22:00 -40.13524 -72.93023 16170 ft 362 kts
2026-05-05 22:00 -40.11073 -72.92196 16721 ft 366 kts
2026-05-05 22:00 -40.08587 -72.91364 17318 ft 369 kts
2026-05-05 22:00 -40.06113 -72.90533 17914 ft 371 kts
2026-05-05 22:01 -40.03583 -72.89685 18489 ft 375 kts
2026-05-05 22:01 -40.01059 -72.88841 19045 ft 377 kts
2026-05-05 22:01 -39.98516 -72.87987 19613 ft 379 kts
2026-05-05 22:01 -39.95983 -72.87140 20199 ft 380 kts
2026-05-05 22:02 -39.93404 -72.86279 20759 ft 382 kts
2026-05-05 22:02 -39.90836 -72.85423 21311 ft 384 kts
2026-05-05 22:02 -39.88235 -72.84558 21830 ft 386 kts
2026-05-05 22:02 -39.85642 -72.83695 22343 ft 389 kts
2026-05-05 22:03 -39.83025 -72.82825 22855 ft 390 kts
2026-05-05 22:03 -39.80382 -72.81947 23359 ft 392 kts
2026-05-05 22:03 -39.77721 -72.81066 23872 ft 394 kts
2026-05-05 22:03 -39.75090 -72.80196 24376 ft 395 kts
2026-05-05 22:04 -39.72420 -72.79346 24874 ft 394 kts
2026-05-05 22:04 -39.69756 -72.78687 25336 ft 393 kts
2026-05-05 22:04 -39.67044 -72.78181 25745 ft 394 kts
2026-05-05 22:04 -39.64303 -72.77680 26167 ft 396 kts
2026-05-05 22:05 -39.61599 -72.77182 26634 ft 396 kts
2026-05-05 22:05 -39.58850 -72.76681 27037 ft 397 kts
2026-05-05 22:05 -39.56131 -72.76186 27408 ft 399 kts
2026-05-05 22:05 -39.53364 -72.75681 27766 ft 401 kts
2026-05-05 22:06 -39.50617 -72.75185 28099 ft 403 kts
2026-05-05 22:06 -39.47805 -72.74675 28454 ft 405 kts
2026-05-05 22:06 -39.45045 -72.74174 28829 ft 405 kts
2026-05-05 22:06 -39.42246 -72.73667 29334 ft 402 kts
2026-05-05 22:07 -39.39491 -72.73166 29784 ft 401 kts
2026-05-05 22:07 -39.36739 -72.72669 30209 ft 400 kts
2026-05-05 22:07 -39.34008 -72.72167 30642 ft 398 kts
2026-05-05 22:07 -39.31273 -72.71672 31026 ft 397 kts
2026-05-05 22:08 -39.28542 -72.71175 31431 ft 395 kts
2026-05-05 22:08 -39.25830 -72.70685 31799 ft 394 kts
2026-05-05 22:08 -39.23134 -72.70201 32108 ft 394 kts
2026-05-05 22:08 -39.20417 -72.69710 32428 ft 394 kts
2026-05-05 22:09 -39.17724 -72.69224 32799 ft 392 kts
2026-05-05 22:09 -39.15012 -72.68736 33146 ft 390 kts
2026-05-05 22:09 -39.12321 -72.68249 33462 ft 389 kts
2026-05-05 22:09 -39.09676 -72.67775 33746 ft 389 kts
2026-05-05 22:10 -39.06992 -72.67296 34022 ft 388 kts
2026-05-05 22:10 -39.04336 -72.66821 34359 ft 386 kts
2026-05-05 22:10 -39.01661 -72.66338 34595 ft 384 kts
2026-05-05 22:10 -38.99014 -72.65863 34700 ft 386 kts
2026-05-05 22:11 -38.96358 -72.65391 34837 ft 386 kts
2026-05-05 22:11 -38.93705 -72.64915 35004 ft 386 kts
2026-05-05 22:11 -38.91044 -72.64394 35086 ft 390 kts
2026-05-05 22:12 -38.85677 -72.62928 35328 ft 394 kts
2026-05-05 22:12 -38.83025 -72.62173 35443 ft 395 kts
2026-05-05 22:12 -38.80317 -72.61403 35545 ft 396 kts
2026-05-05 22:12 -38.77652 -72.60646 35662 ft 397 kts
2026-05-05 22:13 -38.74945 -72.59874 35768 ft 399 kts
2026-05-05 22:13 -38.72253 -72.59105 35908 ft 399 kts
2026-05-05 22:13 -38.69515 -72.58328 36069 ft 398 kts
2026-05-05 22:13 -38.66818 -72.57558 36216 ft 399 kts
2026-05-05 22:14 -38.64108 -72.56786 36321 ft 401 kts
2026-05-05 22:14 -38.61390 -72.56014 36444 ft 402 kts
2026-05-05 22:14 -38.58658 -72.55238 36600 ft 402 kts
2026-05-05 22:14 -38.55946 -72.54470 36735 ft 402 kts
2026-05-05 22:15 -38.53204 -72.53689 36846 ft 403 kts
2026-05-05 22:15 -38.50475 -72.52919 36977 ft 404 kts
2026-05-05 22:15 -38.47739 -72.52140 37078 ft 405 kts
2026-05-05 22:15 -38.44978 -72.51359 37203 ft 405 kts
2026-05-05 22:16 -38.42207 -72.50577 37321 ft 406 kts
2026-05-05 22:16 -38.39476 -72.49806 37441 ft 406 kts
2026-05-05 22:16 -38.36713 -72.49030 37542 ft 407 kts
2026-05-05 22:17 -38.31191 -72.47474 37731 ft 408 kts
2026-05-05 22:17 -38.25623 -72.45908 37872 ft 410 kts
2026-05-05 22:18 -38.20000 -72.44335 37873 ft 415 kts
2026-05-05 22:18 -38.14354 -72.42752 37886 ft 419 kts
2026-05-05 22:19 -38.08661 -72.41163 37883 ft 422 kts
2026-05-05 22:19 -38.02897 -72.39549 37896 ft 425 kts
2026-05-05 22:20 -37.97116 -72.37940 37893 ft 427 kts
2026-05-05 22:20 -37.91311 -72.36320 37890 ft 428 kts
2026-05-05 22:21 -37.85472 -72.34695 37892 ft 429 kts
2026-05-05 22:21 -37.79663 -72.33083 37905 ft 430 kts
2026-05-05 22:22 -37.73812 -72.31463 37906 ft 431 kts
2026-05-05 22:22 -37.67957 -72.29845 37906 ft 432 kts
2026-05-05 22:23 -37.62078 -72.28181 37908 ft 434 kts
2026-05-05 22:23 -37.56212 -72.26376 37907 ft 435 kts
2026-05-05 22:24 -37.50309 -72.24558 37910 ft 436 kts
2026-05-05 22:24 -37.44434 -72.22761 37914 ft 436 kts
2026-05-05 22:25 -37.38546 -72.20966 37906 ft 436 kts
2026-05-05 22:25 -37.32678 -72.19183 37909 ft 437 kts
2026-05-05 22:26 -37.26757 -72.17386 37913 ft 437 kts
2026-05-05 22:26 -37.20877 -72.15604 37906 ft 437 kts
2026-05-05 22:27 -37.14944 -72.13811 37909 ft 437 kts
2026-05-05 22:27 -37.09015 -72.12020 37914 ft 438 kts
2026-05-05 22:28 -37.03122 -72.10245 37911 ft 437 kts
2026-05-05 22:28 -36.97220 -72.08469 37913 ft 437 kts
2026-05-05 22:29 -36.91300 -72.06690 37920 ft 438 kts
2026-05-05 22:29 -36.85376 -72.04915 37910 ft 438 kts
2026-05-05 22:30 -36.79422 -72.03131 37913 ft 438 kts
2026-05-05 22:30 -36.73541 -72.01373 37928 ft 438 kts
2026-05-05 22:31 -36.67608 -71.99602 37934 ft 439 kts
2026-05-05 22:31 -36.61639 -71.97824 37929 ft 440 kts
2026-05-05 22:32 -36.55709 -71.96058 37935 ft 438 kts
2026-05-05 22:32 -36.49814 -71.94306 37938 ft 437 kts
2026-05-05 22:33 -36.43890 -71.92551 37932 ft 436 kts
2026-05-05 22:33 -36.38017 -71.90815 37935 ft 436 kts
2026-05-05 22:34 -36.32088 -71.89064 37940 ft 436 kts
2026-05-05 22:34 -36.26199 -71.87326 37940 ft 436 kts
2026-05-05 22:35 -36.20339 -71.85599 37938 ft 434 kts
2026-05-05 22:35 -36.14447 -71.83867 37945 ft 435 kts
2026-05-05 22:36 -36.08575 -71.82140 37959 ft 434 kts
2026-05-05 22:36 -36.02716 -71.80420 37960 ft 434 kts
2026-05-05 22:37 -35.96845 -71.78700 37964 ft 434 kts
2026-05-05 22:37 -35.90974 -71.76986 37963 ft 433 kts
2026-05-05 22:38 -35.85109 -71.75269 37966 ft 432 kts
2026-05-05 22:38 -35.79270 -71.73568 37969 ft 432 kts
2026-05-05 22:39 -35.73410 -71.71863 37967 ft 431 kts
2026-05-05 22:39 -35.67590 -71.70170 37959 ft 431 kts
2026-05-05 22:40 -35.61734 -71.68471 37958 ft 433 kts
2026-05-05 22:40 -35.55899 -71.66784 37961 ft 432 kts
2026-05-05 22:41 -35.50053 -71.65093 37971 ft 432 kts
2026-05-05 22:41 -35.44235 -71.63412 37969 ft 432 kts
2026-05-05 22:42 -35.38391 -71.61726 37974 ft 432 kts
2026-05-05 22:42 -35.32527 -71.60033 38054 ft 431 kts
2026-05-05 22:43 -35.26684 -71.58348 37997 ft 430 kts
2026-05-05 22:43 -35.20890 -71.56684 37989 ft 430 kts
2026-05-05 22:44 -35.15078 -71.55014 37985 ft 429 kts 360°
2026-05-05 22:44 -35.09271 -71.53350 37987 ft 429 kts 360°
2026-05-05 22:45 -35.03438 -71.51682 37995 ft 429 kts
2026-05-05 22:45 -34.97675 -71.50034 37996 ft 428 kts 360°
2026-05-05 22:46 -34.91880 -71.48381 37996 ft 427 kts 360°
2026-05-05 22:46 -34.86080 -71.46728 37998 ft 427 kts 359°
2026-05-05 22:47 -34.80280 -71.45078 38002 ft 430 kts 359°
2026-05-05 22:47 -34.77389 -71.44260 37621 ft 431 kts 360°
2026-05-05 22:47 -34.74468 -71.43430 37055 ft 428 kts
2026-05-05 22:47 -34.71576 -71.42609 36464 ft 423 kts
2026-05-05 22:48 -34.68755 -71.41801 35802 ft 422 kts
2026-05-05 22:48 -34.65899 -71.40865 35159 ft 425 kts
2026-05-05 22:48 -34.63084 -71.39733 34513 ft 429 kts
2026-05-05 22:48 -34.60310 -71.38419 33837 ft 432 kts
2026-05-05 22:49 -34.57510 -71.37041 33134 ft 432 kts 10°
2026-05-05 22:49 -34.54735 -71.35677 32453 ft 431 kts 10°
2026-05-05 22:49 -34.51998 -71.34328 31796 ft 429 kts 10°
2026-05-05 22:49 -34.49249 -71.32976 31099 ft 428 kts 10°
2026-05-05 22:50 -34.46508 -71.31627 30452 ft 425 kts 10°
2026-05-05 22:50 -34.43743 -71.30266 29778 ft 424 kts 10°
2026-05-05 22:50 -34.41048 -71.28944 29070 ft 423 kts 11°
2026-05-05 22:50 -34.38329 -71.27612 28397 ft 422 kts 10°
2026-05-05 22:51 -34.35616 -71.26281 27678 ft 422 kts 11°
2026-05-05 22:51 -34.32903 -71.24953 27015 ft 421 kts 11°
2026-05-05 22:51 -34.30217 -71.23639 26515 ft 415 kts 12°
2026-05-05 22:51 -34.27531 -71.22321 26039 ft 409 kts 12°
2026-05-05 22:52 -34.24918 -71.21037 25603 ft 404 kts 12°
2026-05-05 22:52 -34.22337 -71.19777 25161 ft 401 kts 12°
2026-05-05 22:52 -34.19769 -71.18522 24684 ft 398 kts 12°
2026-05-05 22:52 -34.17213 -71.17278 24202 ft 394 kts 12°
2026-05-05 22:53 -34.14676 -71.16040 23689 ft 392 kts 12°
2026-05-05 22:53 -34.12180 -71.14825 23207 ft 388 kts 12°
2026-05-05 22:53 -34.09710 -71.13618 22738 ft 384 kts 13°
2026-05-05 22:53 -34.07235 -71.12417 22262 ft 381 kts 13°
2026-05-05 22:54 -34.04780 -71.11223 21782 ft 377 kts 13°
2026-05-05 22:54 -34.02364 -71.10047 21300 ft 374 kts 13°
2026-05-05 22:54 -33.99981 -71.08891 20840 ft 371 kts 13°
2026-05-05 22:54 -33.97575 -71.07725 20395 ft 367 kts 13°
2026-05-05 22:55 -33.95250 -71.06595 19932 ft 364 kts 14°
2026-05-05 22:55 -33.92899 -71.05454 19440 ft 361 kts 14°
2026-05-05 22:55 -33.90582 -71.04332 18952 ft 358 kts 14°
2026-05-05 22:55 -33.88288 -71.03220 18500 ft 356 kts 14°
2026-05-05 22:56 -33.85997 -71.02109 18013 ft 354 kts 14°
2026-05-05 22:56 -33.83727 -71.01016 17571 ft 351 kts 15°
2026-05-05 22:56 -33.81473 -70.99924 17098 ft 348 kts 14°
2026-05-05 22:56 -33.79238 -70.98840 16631 ft 347 kts 15°
2026-05-05 22:57 -33.76979 -70.97754 16145 ft 345 kts 15°
2026-05-05 22:57 -33.74771 -70.96690 15655 ft 344 kts 15°
2026-05-05 22:57 -33.72566 -70.95627 15152 ft 342 kts 15°
2026-05-05 22:57 -33.70364 -70.94564 14677 ft 339 kts 16°
2026-05-05 22:58 -33.68191 -70.93515 14242 ft 337 kts 16°
2026-05-05 22:58 -33.66026 -70.92470 13774 ft 335 kts 16°
2026-05-05 22:58 -33.63875 -70.91438 13278 ft 334 kts 17°
2026-05-05 22:58 -33.61705 -70.90395 12825 ft 332 kts 17°
2026-05-05 22:59 -33.59573 -70.89368 12385 ft 330 kts 17°
2026-05-05 22:59 -33.57475 -70.88284 11909 ft 330 kts 20°
2026-05-05 22:59 -33.55407 -70.87012 11475 ft 331 kts 25°
2026-05-05 22:59 -33.53449 -70.85613 10998 ft 331 kts 26°
2026-05-05 23:00 -33.49612 -70.82780 10536 ft 310 kts 27°
2026-05-05 23:00 -33.47804 -70.81448 10358 ft 299 kts 26°
2026-05-05 23:00 -33.46050 -70.80162 10196 ft 287 kts 25°
2026-05-05 23:01 -33.44250 -70.79389 10056 ft 267 kts
2026-05-05 23:01 -33.42466 -70.79672 9781 ft 259 kts 338°
2026-05-05 23:01 -33.40918 -70.80755 9412 ft 259 kts 327°
2026-05-05 23:01 -33.39441 -70.81968 9056 ft 258 kts 327°
2026-05-05 23:02 -33.37951 -70.83175 8699 ft 258 kts 327°
2026-05-05 23:02 -33.36467 -70.84372 8350 ft 257 kts 327°
2026-05-05 23:02 -33.35013 -70.85546 8100 ft 252 kts 327°
2026-05-05 23:02 -33.33569 -70.86714 7849 ft 246 kts 327°
2026-05-05 23:03 -33.32159 -70.87851 7636 ft 240 kts 327°
2026-05-05 23:03 -33.30802 -70.88944 7482 ft 231 kts 327°
2026-05-05 23:03 -33.29484 -70.90006 7318 ft 227 kts 327°
2026-05-05 23:03 -33.28162 -70.91067 7163 ft 229 kts 327°
2026-05-05 23:04 -33.26847 -70.92126 6993 ft 229 kts 327°
2026-05-05 23:04 -33.25437 -70.93039 6724 ft 231 kts 343°
2026-05-05 23:04 -33.23858 -70.93292 6412 ft 230 kts
2026-05-05 23:04 -33.22299 -70.92863 6112 ft 230 kts 24°
2026-05-05 23:05 -33.20958 -70.91818 5832 ft 233 kts 43°
2026-05-05 23:05 -33.20000 -70.90273 5543 ft 236 kts 63°
2026-05-05 23:05 -33.19551 -70.88395 5311 ft 234 kts 84°
2026-05-05 23:05 -33.19680 -70.86505 5167 ft 228 kts 104°
2026-05-05 23:06 -33.20314 -70.84803 5000 ft 223 kts 121°
2026-05-05 23:06 -33.21271 -70.83363 4759 ft 220 kts 134°
2026-05-05 23:06 -33.22439 -70.82258 4569 ft 212 kts 147°
2026-05-05 23:06 -33.23742 -70.81494 4286 ft 208 kts 160°
2026-05-05 23:07 -33.25114 -70.81089 4012 ft 196 kts 173°
2026-05-05 23:07 -33.26443 -70.80952 3717 ft 185 kts 177°
2026-05-05 23:07 -33.27702 -70.80869 3474 ft 174 kts 178°
2026-05-05 23:07 -33.28848 -70.80795 3260 ft 159 kts 177°
2026-05-05 23:08 -33.29912 -70.80726 3033 ft 148 kts 179°
2026-05-05 23:08 -33.30939 -70.80678 2851 ft 145 kts 179°
2026-05-05 23:08 -33.31941 -70.80632 2663 ft 143 kts 178°
2026-05-05 23:08 -33.32932 -70.80582 2478 ft 141 kts 178°
2026-05-05 23:09 -33.33910 -70.80531 2288 ft 139 kts 179°
2026-05-05 23:09 -33.34868 -70.80496 2080 ft 136 kts 179°
2026-05-05 23:09 -33.35808 -70.80450 1921 ft 135 kts 178°
2026-05-05 23:09 -33.36744 -70.80402 1735 ft 132 kts 176°
2026-05-05 23:10 -33.37660 -70.80348 1581 ft 126 kts 176°
2026-05-05 23:10 -33.38439 -70.80309 1574 ft 90 kts 176°
2026-05-05 23:10 -33.38910 -70.80281 1574 ft 53 kts 178°
2026-05-05 23:10 -33.39197 -70.80247 1573 ft 35 kts 167°
2026-05-05 23:11 -33.39378 -70.80161 1573 ft 18 kts 149°
2026-05-05 23:11 -33.39482 -70.80078 1573 ft 17 kts 139°
2026-05-05 23:11 -33.39534 -70.79958 1574 ft 16 kts 87°
2026-05-05 23:11 -33.39527 -70.79822 1574 ft 14 kts 89°
2026-05-05 23:12 -33.39524 -70.79712 1578 ft 11 kts 86°
2026-05-05 23:12 -33.39521 -70.79626 1581 ft 8 kts 88°
2026-05-05 23:12 -33.39519 -70.79562 1584 ft 6 kts 86°
2026-05-05 23:12 -33.39516 -70.79482 1586 ft 13 kts 88°
2026-05-05 23:13 -33.39511 -70.79351 1589 ft 16 kts 87°
2026-05-05 23:13 -33.39507 -70.79229 1591 ft 6 kts 101°
2026-05-05 23:13 -33.39526 -70.79219 1591 ft 3 kts 180°
2026-05-05 23:13 -33.39553 -70.79218 1591 ft 4 kts 178°
2026-05-05 23:14 -33.39576 -70.79217 1591 ft 0 kts 177°
2026-05-05 23:14 -33.39577 -70.79217 1591 ft 0 kts 177°